This demonstration page uses our WeatherBlox Daily Observations layout. Learn more.

36.17497, -115.13722

Hourly Observations for October 11, 2018

Temp ( °F °C ) Dew Point ( °F °C ) Humidity (%) Winds ( mph kmh ) Pressure ( in mb ) Visibility ( mi km ) Precip ( " mm )
12:53 am 00:53 Clear 65 18.3 32 0 29 29 Calm 29.77 1008 10 16.09344 0 0
1:53 am 01:53 Clear 63 17.2 31 -0.6 30 30 SSE 6 9 29.77 1008 10 16.09344 0 0
2:53 am 02:53 Clear 61 16.1 33 0.6 35 35 Calm 29.74 1007 10 16.09344 0 0
3:53 am 03:53 Clear 58 14.4 34 1.1 41 41 Calm 29.74 1007 10 16.09344 0 0
4:53 am 04:53 Clear 58 14.4 34 1.1 41 41 Calm 29.77 1008 10 16.09344 0 0
5:53 am 05:53 Clear 57 13.9 33 0.6 41 41 Calm 29.77 1008 10 16.09344 0 0
6:53 am 06:53 Sunny 58 14.4 33 0.6 39 39 NW 6 9 29.8 1009 10 16.09344 0 0
7:53 am 07:53 Sunny 61 16.1 34 1.1 36 36 NW 5 7 29.83 1010 10 16.09344 0 0
8:53 am 08:53 Sunny 66 18.9 38 3.3 36 36 ESE 6 9 29.83 1010 10 16.09344 0 0
9:53 am 09:53 Sunny 68 20 44 6.7 42 42 SE 6 9 29.83 1010 10 16.09344 0 0
10:53 am 10:53 Sunny 71 21.7 42 5.6 35 35 undefined N/A 29.83 1010 10 16.09344 0 0
11:53 am 11:53 Sunny 74 23.3 43 6.1 33 33 undefined N/A 29.83 1010 10 16.09344 0 0
12:53 pm 12:53 Sunny 76 24.4 43 6.1 31 31 SE 7 11 29.8 1009 10 16.09344 0 0
1:53 pm 13:53 Sunny 77 25 37 2.8 24 24 Calm 29.77 1008 10 16.09344 0 0
2:53 pm 14:53 Sunny 77 25 42 5.6 29 29 S 9 15 29.77 1008 10 16.09344 0 0
3:53 pm 15:53 Mostly Sunny 77 25 43 6.1 30 30 E 12 19 29.77 1008 10 16.09344 0 0
4:53 pm 16:53 Sunny 75 23.9 45 7.2 34 34 E 16 26 29.8 1009 10 16.09344 0 0
5:53 pm 17:53 Sunny 73 22.8 45 7.2 37 37 ENE 13 20 29.83 1010 10 16.09344 0 0
6:53 pm 18:53 Clear 71 21.7 45 7.2 39 39 E 15 24 29.83 1010 10 16.09344 0 0
7:53 pm 19:53 Clear 70 21.1 44 6.7 39 39 E 12 19 29.85 1011 10 16.09344 0 0
8:53 pm 20:53 Mostly Cloudy 70 21.1 44 6.7 39 39 E 10 17 29.88 1012 10 16.09344 0 0
9:53 pm 21:53 Clear 69 20.6 43 6.1 39 39 ENE 8 13 29.88 1012 10 16.09344 0 0
10:53 pm 22:53 Clear 68 20 43 6.1 40 40 ENE 6 9 29.91 1013 10 16.09344 0 0
11:53 pm 23:53 Clear 65 18.3 43 6.1 45 45 SE 7 11 29.91 1013 10 16.09344 0 0

Powered by AerisWeather